Flag for U.S.A. Weather past 2 weeks in Denver, Colorado, U.S.A.

Now
36 °F

Passing clouds.


Feels Like: 36 °F
Forecast: 32 / 45 °F
Wind: 1 mph from North

Location: Buckley Air Force Base

Current Time: Jan 28, 2015 at 11:35:47 PM

Latest Report: Jan 28, 2015 at 10:58 PM


Visibility: 10 mi

Pressure: 30.28 "Hg

Humidity: 76%

Dew point: 30 °F

Location of DenverLocation

Historic Weather in Denver — Graph

°F

Denver temperature yesterday

Maximum temperature yesterday: 73 °F (at 2:58 PM)
Minimum temperature yesterday: 43 °F (at 2:58 AM)
Average temperature yesterday: 53 °F

Past Weeks' High & Low Weather Summary

 TemperatureHumidityPressure
High73 °F (Jan 27, 2:58 PM)100% (Jan 13, 10:58 PM)30.47 "Hg (Jan 13, 10:58 PM)
Low11 °F (Jan 22, 3:58 AM)10% (Jan 27, 1:58 PM)29.78 "Hg (Jan 16, 3:58 PM)
Average39 °F49%30.13 "Hg
* Reported Jan 13 9:58 PM — Jan 28 9:58 PM, Denver, Weather by CustomWeather, © 2014

Note: Actual official high and low records may vary slightly from our data, if they occured in-between our weather recording intervals... More about our weather records

Advertising

Denver weather history for previous 24 hours

 ConditionsComfort  
Time TempWeatherWind HumidityBarometerVisibility
9:58 PM
Jan 28
33 °FPassing clouds.7 mph90%30.26 "Hg10 mi
8:58 PM36 °FPassing clouds.10 mph89%30.22 "Hg10 mi
7:58 PM37 °FPassing clouds.10 mph87%30.22 "Hg10 mi
6:58 PM42 °FPassing clouds.9 mph50%30.18 "Hg10 mi
5:58 PM44 °FPassing clouds.6 mph45%30.12 "Hg10 mi
4:58 PM52 °FScattered clouds.9 mph32%30.06 "Hg10 mi
3:58 PM57 °FScattered clouds.9 mph22%29.99 "Hg10 mi
2:58 PM58 °FScattered clouds.13 mph21%29.96 "Hg10 mi
1:58 PM58 °FScattered clouds.15 mph20%29.94 "Hg10 mi
12:58 PM58 °FScattered clouds.21 mph21%29.95 "Hg10 mi
11:58 AM58 °FScattered clouds.18 mph22%29.96 "Hg10 mi
10:58 AM55 °FPassing clouds.28 mph24%29.98 "Hg10 mi
9:58 AM53 °FPassing clouds.23 mph26%29.99 "Hg10 mi
8:58 AM51 °FScattered clouds.22 mph28%29.99 "Hg10 mi
7:58 AM45 °FScattered clouds.9 mph38%29.98 "Hg10 mi
6:58 AM42 °FPartly cloudy.12 mph45%29.97 "Hg10 mi
5:58 AM41 °FPassing clouds.15 mph47%29.95 "Hg10 mi
4:58 AM42 °FPassing clouds.7 mph46%29.93 "Hg10 mi
3:58 AM42 °FPassing clouds.5 mph46%29.88 "Hg10 mi
2:58 AM46 °FPassing clouds.5 mph37%29.85 "Hg10 mi
1:58 AM45 °FPassing clouds.6 mph39%29.86 "Hg10 mi
12:58 AM41 °FPassing clouds.6 mph47%29.87 "Hg10 mi
11:58 PM
Jan 27
46 °FPassing clouds.2 mph40%29.88 "Hg10 mi
Weather by CustomWeather, © 2014

See weather overviewHow to use our weather pages